Weather History for Waupaca, WI

Change the Weather History Date:

Wednesday, May 8, 2013

  Actual Average Record
Temperature  
Mean Temperature 64 °F -  
Max Temperature 82 °F 66 °F 87 °F (1953)
Min Temperature 45 °F 43 °F 27 °F (1954)
Degree Days  
Heating Degree Days 2    
Growing Degree Days 14 (Base 50)    
Moisture  
Dew Point 41 °F    
Average Humidity 49    
Maximum Humidity 91    
Minimum Humidity 18    
Precipitation  
Precipitation 0.00 in - - ()
Sea Level Pressure  
Sea Level Pressure 30.00 in    
Wind  
Wind Speed 1 mph (SE)    
Max Wind Speed 7 mph    
Max Gust Speed -    
Visibility 10 miles    
Events      
Averages and records for this station are not official NWS values.
T = Trace of Precipitation, MM = Missing Value Source: NWS Daily Summary

Daily Weather History Graph

Daily Weather History Graph

Search for Another Location

Airport:

Trip Planner

Search our weather history database for the weather conditions in past years. The results will help you decide how hot, cold, wet, or windy it might be!

Date:

Astronomy

May. 08, 2013 Rise Set
Actual Time 5:37 AM CDT 8:08 PM CDT
Civil Twilight 5:04 AM CDT 8:41 PM CDT
Nautical Twilight 4:23 AM CDT 9:22 PM CDT
Astronomical Twilight 3:36 AM CDT 10:09 PM CDT
Moon 4:48 AM CDT (5/8) 7:05 PM CDT (5/8)
Length of Visible Light 15h 37m
Length of Day
14h 31m
Waning Crescent, 2% of the Moon is Illuminated
May 8
Waning Crescent
May 9
New
May 17
First Quarter
May 24
Full
May 31
Last Quarter

Hourly Weather History & Observations

Time (CDT) Temp. Dew Point Humidity Pressure Visibility Wind Dir Wind Speed Gust Speed Precip Events Conditions
12:15 AM 52.7 °F 44.4 °F 73% 30.01 in 10.0 mi Calm Calm - N/A   Clear
12:35 AM 52.2 °F 42.6 °F 70% 30.01 in 10.0 mi Calm Calm - N/A   Clear
12:55 AM 53.6 °F 42.1 °F 65% 30.01 in 10.0 mi Calm Calm - N/A   Clear
1:15 AM 51.8 °F 42.4 °F 70% 30.01 in 10.0 mi Calm Calm - N/A   Clear
1:35 AM 51.3 °F 42.8 °F 73% 30.01 in 10.0 mi Calm Calm - N/A   Clear
1:55 AM 51.1 °F 42.6 °F 73% 30.01 in 10.0 mi Calm Calm - N/A   Clear
2:15 AM 50.2 °F 43.9 °F 79% 30.01 in 10.0 mi Calm Calm - N/A   Clear
2:35 AM 50.0 °F 43.9 °F 79% 30.01 in 10.0 mi Calm Calm - N/A   Clear
2:55 AM 49.3 °F 44.1 °F 82% 30.01 in 10.0 mi Calm Calm - N/A   Clear
3:15 AM 48.2 °F 42.3 °F 80% 30.01 in 10.0 mi Calm Calm - N/A   Clear
3:35 AM 49.1 °F 44.2 °F 83% 30.01 in 10.0 mi Calm Calm - N/A   Clear
3:55 AM 48.2 °F 43.2 °F 83% 30.01 in 10.0 mi Calm Calm - N/A   Clear
4:15 AM 47.5 °F 43.7 °F 87% 30.01 in 10.0 mi Calm Calm - N/A   Clear
4:35 AM 47.1 °F 44.1 °F 89% 30.01 in 10.0 mi Calm Calm - N/A   Clear
4:55 AM 46.6 °F 43.7 °F 90% 30.02 in 10.0 mi Calm Calm - N/A   Clear
5:15 AM 45.9 °F 42.6 °F 88% 30.02 in 10.0 mi Calm Calm - N/A   Clear
5:35 AM 45.7 °F 42.4 °F 88% 30.02 in 10.0 mi Calm Calm - N/A   Clear
5:55 AM 45.5 °F 42.3 °F 88% 30.03 in 10.0 mi Calm Calm - N/A   Clear
6:15 AM 45.7 °F 43.2 °F 91% 30.03 in 10.0 mi Calm Calm - N/A   Clear
6:35 AM 46.9 °F 44.4 °F 91% 30.04 in 10.0 mi Calm Calm - N/A   Clear
6:55 AM 49.3 °F 45.9 °F 88% 30.04 in 10.0 mi Calm Calm - N/A   Clear
7:15 AM 51.8 °F 46.0 °F 81% 30.04 in 10.0 mi Calm Calm - N/A   Clear
7:35 AM 55.2 °F 47.3 °F 75% 30.04 in 10.0 mi Calm Calm - N/A   Clear
7:55 AM 57.2 °F 47.5 °F 70% 30.04 in 10.0 mi Calm Calm - N/A   Clear
8:15 AM 60.8 °F 47.8 °F 62% 30.04 in 10.0 mi Calm Calm - N/A   Clear
8:35 AM 62.8 °F 48.4 °F 59% 30.04 in 10.0 mi Calm Calm - N/A   Clear
8:55 AM 64.6 °F 47.5 °F 54% 30.04 in 10.0 mi South 3.5 mph - N/A   Clear
9:15 AM 67.1 °F 47.8 °F 50% 30.04 in 10.0 mi South 3.5 mph - N/A   Clear
9:35 AM 69.1 °F 47.7 °F 46% 30.04 in 10.0 mi Calm Calm - N/A   Clear
9:55 AM 70.7 °F 47.3 °F 43% 30.03 in 10.0 mi Calm Calm - N/A   Clear
10:15 AM 72.1 °F 46.9 °F 41% 30.03 in 10.0 mi South 3.5 mph - N/A   Clear
10:35 AM 72.9 °F 45.5 °F 38% 30.03 in 10.0 mi Calm Calm - N/A   Clear
10:55 AM 75.2 °F 42.6 °F 31% 30.03 in 10.0 mi Calm Calm - N/A   Clear
11:15 AM 76.3 °F 42.4 °F 30% 30.03 in 10.0 mi Calm Calm - N/A   Clear
11:35 AM 78.1 °F 41.9 °F 27% 30.03 in 10.0 mi Calm Calm - N/A   Clear
11:55 AM 78.3 °F 40.8 °F 26% 30.02 in 10.0 mi Calm Calm - N/A   Clear
12:15 PM 79.0 °F 37.9 °F 23% 30.01 in 10.0 mi Calm Calm - N/A   Clear
12:35 PM 80.1 °F 35.4 °F 20% 30.01 in 10.0 mi ENE 3.5 mph - N/A   Clear
12:55 PM 81.5 °F 36.7 °F 20% 30.00 in 10.0 mi East 4.6 mph - N/A   Clear
1:15 PM 81.5 °F 39.7 °F 23% 30.00 in 10.0 mi ESE 5.8 mph - N/A   Clear
1:35 PM 81.5 °F 37.6 °F 21% 29.99 in 10.0 mi NNE 5.8 mph - N/A   Scattered Clouds
1:55 PM 79.0 °F 37.0 °F 22% 29.99 in 10.0 mi ENE 4.6 mph - N/A   Mostly Cloudy
2:15 PM 78.8 °F 36.9 °F 22% 29.99 in 10.0 mi Calm Calm - N/A   Overcast
2:35 PM 80.2 °F 35.6 °F 20% 29.99 in 10.0 mi South 4.6 mph - N/A   Overcast
2:55 PM 79.7 °F 36.3 °F 21% 29.99 in 10.0 mi ESE 5.8 mph - N/A   Overcast
3:35 PM 82.4 °F 34.2 °F 18% 29.97 in 10.0 mi SSE 4.6 mph - N/A   Scattered Clouds
3:55 PM 82.4 °F 34.3 °F 18% 29.97 in 10.0 mi South 5.8 mph - N/A   Clear
4:15 PM 82.2 °F 34.5 °F 18% 29.96 in 10.0 mi SSE 3.5 mph - N/A   Clear
4:35 PM 81.5 °F 33.8 °F 18% 29.96 in 10.0 mi SW 3.5 mph - N/A   Scattered Clouds
4:55 PM 79.9 °F 36.0 °F 21% 29.96 in 10.0 mi Calm Calm - N/A   Mostly Cloudy
5:15 PM 81.5 °F 34.7 °F 19% 29.96 in 10.0 mi SSE 3.5 mph - N/A   Mostly Cloudy
5:35 PM 79.9 °F 36.9 °F 21% 29.96 in 10.0 mi South 3.5 mph - N/A   Overcast
5:55 PM 79.0 °F 33.6 °F 19% 29.96 in 10.0 mi Calm Calm - N/A   Mostly Cloudy
6:15 PM 78.1 °F 38.5 °F 24% 29.96 in 10.0 mi ESE 3.5 mph - N/A   Mostly Cloudy
6:35 PM 76.8 °F 37.4 °F 24% 29.96 in 10.0 mi ESE 6.9 mph - N/A   Scattered Clouds
6:55 PM 76.3 °F 37.0 °F 24% 29.96 in 10.0 mi SE 6.9 mph - N/A   Scattered Clouds
7:15 PM 76.3 °F 36.7 °F 24% 29.96 in 10.0 mi SE 6.9 mph - N/A   Overcast
7:35 PM 74.5 °F 37.0 °F 26% 29.96 in 10.0 mi SSE 3.5 mph - N/A   Overcast
7:55 PM 72.9 °F 36.3 °F 26% 29.96 in 10.0 mi SSE 5.8 mph - N/A   Overcast
8:15 PM 71.1 °F 37.4 °F 29% 29.97 in 10.0 mi SSE 4.6 mph - N/A   Overcast
8:35 PM 69.3 °F 37.4 °F 31% 29.97 in 10.0 mi SE 3.5 mph - N/A   Mostly Cloudy
8:55 PM 69.1 °F 38.3 °F 32% 29.97 in 10.0 mi Calm Calm - N/A   Scattered Clouds
9:15 PM 67.8 °F 39.4 °F 35% 29.97 in 10.0 mi Calm Calm - N/A   Clear
9:35 PM 65.5 °F 41.2 °F 41% 29.98 in 10.0 mi Calm Calm - N/A   Clear
10:15 PM 63.0 °F 41.0 °F 45% 29.98 in 10.0 mi ESE 4.6 mph - N/A   Clear
10:35 PM 60.6 °F 43.5 °F 53% 29.97 in 10.0 mi Calm Calm - N/A   Clear
11:35 PM 60.4 °F 41.7 °F 50% 29.96 in 10.0 mi Calm Calm - N/A   Clear
11:55 PM 58.1 °F 42.8 °F 57% 29.96 in 10.0 mi Calm Calm - N/A   Clear